Date String (YYYY-MM-DD hh:mm:ss) UTC,Instrument flags,absolute air pressure of the measurement (hPa),sample flow rate (lpm),inlet stack bypass flow (lpm),air temperature of the measurement (°C),ambient temperature measured by the external sensor (°C),aerosol sample conditioner tube jacket temperature (°C),OPC LED temperature (°C),internal box temperature (°C),relative humidity of the measurement (%),span deviation,mass concentration of particles derived from Lorenz-Mie calculation of OPC scattering (μg/m³),mass concentration of particles derived from Lorenz-Mie calculation of OPC scattering (μg/m³),mass concentration of particles derived from Lorenz-Mie calculation of OPC scattering (μg/m³)
DateTimeUTC,F1_M11,P_M11,Q1_M11,Q2_M11,T1_M11,T2_M11,T3_M11,T4_M11,T5_M11,U1_M11,ZSPAN_M11,X0_M11,X2_M11,X1_M11
2023-12-08 06:00:00,SystemResetWarning,0820.2,5.00,000.00,023.0,021.9,000.0,031.5,024.1,11.1,0000.0,0001.81,0001.00,0000.73
2023-12-08 06:01:00,SystemResetWarning,0820.2,4.99,000.00,023.0,021.9,000.0,031.5,024.1,11.2,0000.0,0001.83,0000.99,0000.72
2023-12-08 06:02:00,SystemResetWarning,0819.6,4.99,000.00,023.0,021.9,000.0,031.5,024.0,11.1,0000.0,0001.84,0000.99,0000.72
2023-12-08 06:03:00,SystemResetWarning,0819.8,5.01,000.00,022.9,021.9,000.0,031.5,024.0,11.1,0000.0,0001.91,0001.00,0000.71
2023-12-08 06:04:00,SystemResetWarning,0819.9,5.00,000.00,022.9,021.9,000.0,031.5,023.9,11.1,0000.0,0001.97,0001.03,0000.71
2023-12-08 06:05:00,SystemResetWarning,0819.8,5.00,000.00,022.9,021.8,000.0,031.4,023.9,11.1,0000.0,0002.00,0001.05,0000.70
2023-12-08 06:06:00,SystemResetWarning,0819.6,5.01,000.00,022.9,021.8,000.0,031.4,023.9,11.0,0000.0,0002.10,0001.05,0000.71
2023-12-08 06:07:00,SystemResetWarning,0819.5,5.01,000.00,022.8,021.8,000.0,031.4,023.8,11.0,0000.0,0002.64,0001.07,0000.70
2023-12-08 06:08:00,SystemResetWarning,0819.5,5.00,000.00,022.8,021.8,000.0,031.4,023.8,11.0,0000.0,0003.53,0001.10,0000.70
2023-12-08 06:09:00,SystemResetWarning,0819.6,5.00,000.00,022.8,021.8,000.0,031.3,023.8,11.0,0000.0,0003.49,0001.09,0000.70
2023-12-08 06:10:00,SystemResetWarning,0819.5,5.00,000.00,022.7,021.7,000.0,031.3,023.8,10.9,0000.0,0003.45,0001.07,0000.69
2023-12-08 06:11:00,SystemResetWarning,0819.6,5.00,000.00,022.7,021.7,000.0,031.3,023.8,10.9,0000.0,0003.20,0001.09,0000.70
2023-12-08 06:12:00,SystemResetWarning,0820.0,5.00,000.00,022.7,021.7,000.0,031.3,023.8,11.0,0000.0,0003.14,0001.08,0000.70
2023-12-08 06:13:00,SystemResetWarning,0819.8,5.00,000.00,022.7,021.7,000.0,031.2,023.7,11.0,0000.0,0003.11,0001.08,0000.71
2023-12-08 06:14:00,SystemResetWarning,0819.7,5.01,000.00,022.6,021.6,000.0,031.2,023.6,11.0,0000.0,0003.31,0001.08,0000.71
2023-12-08 06:15:00,SystemResetWarning,0819.9,5.00,000.00,022.6,021.6,000.0,031.2,023.6,11.1,0000.0,0003.37,0001.05,0000.71
2023-12-08 06:16:00,SystemResetWarning,0819.7,5.00,000.00,022.6,021.6,000.0,031.2,023.6,11.1,0000.0,0003.38,0001.05,0000.72
2023-12-08 06:17:00,SystemResetWarning,0819.5,5.00,000.00,022.6,021.5,000.0,031.1,023.6,11.2,0000.0,0003.43,0001.10,0000.73
2023-12-08 06:18:00,SystemResetWarning,0819.5,4.99,000.00,022.5,021.5,000.0,031.1,023.5,11.2,0000.0,0003.08,0001.09,0000.73
2023-12-08 06:19:00,SystemResetWarning,0819.5,4.99,000.00,022.5,021.5,000.0,031.1,023.5,11.2,0000.0,0002.25,0001.07,0000.73
2023-12-08 06:20:00,SystemResetWarning,0819.5,5.00,000.00,022.5,021.5,000.0,031.1,023.5,11.2,0000.0,0003.12,0001.08,0000.73
2023-12-08 06:21:00,SystemResetWarning,0819.5,5.01,000.00,022.5,021.5,000.0,031.0,023.5,11.2,0000.0,0003.25,0001.09,0000.74
2023-12-08 06:22:00,SystemResetWarning,0820.0,5.00,000.00,022.4,021.5,000.0,031.0,023.5,11.2,0000.0,0003.66,0001.08,0000.74
2023-12-08 06:23:00,SystemResetWarning,0820.0,5.00,000.00,022.4,021.4,000.0,031.0,023.4,11.2,0000.0,0004.66,0001.07,0000.73
2023-12-08 06:24:00,SystemResetWarning,0819.6,5.01,000.00,022.4,021.4,000.0,031.0,023.4,11.2,0000.0,0004.69,0001.07,0000.73
2023-12-08 06:25:00,SystemResetWarning,0819.7,5.00,000.00,022.4,021.4,000.0,031.0,023.4,11.3,0000.0,0004.48,0001.07,0000.72
2023-12-08 06:26:00,SystemResetWarning,0820.0,4.99,000.00,022.4,021.4,000.0,030.9,023.4,11.3,0000.0,0004.45,0001.09,0000.73
2023-12-08 06:27:00,SystemResetWarning,0820.2,4.99,000.00,022.4,021.4,000.0,030.9,023.4,11.4,0000.0,0004.50,0001.08,0000.72
2023-12-08 06:28:00,SystemResetWarning,0820.1,5.00,000.00,022.3,021.3,000.0,030.9,023.4,11.4,0000.0,0004.39,0001.03,0000.72
2023-12-08 06:29:00,SystemResetWarning,0819.8,5.01,000.00,022.3,021.3,000.0,030.9,023.4,11.5,0000.0,0004.37,0001.03,0000.73
2023-12-08 06:30:00,SystemResetWarning,0819.8,5.00,000.00,022.3,021.3,000.0,030.9,023.4,11.5,0000.0,0004.26,0001.06,0000.73
2023-12-08 06:31:00,SystemResetWarning,0819.9,4.99,000.00,022.3,021.3,000.0,030.8,023.4,11.4,0000.0,0003.51,0001.07,0000.73
2023-12-08 06:32:00,SystemResetWarning,0819.9,4.99,000.00,022.3,021.2,000.0,030.8,023.3,11.5,0000.0,0003.58,0001.08,0000.74
2023-12-08 06:33:00,SystemResetWarning,0819.9,5.02,000.00,022.2,021.2,000.0,030.8,023.3,11.5,0000.0,0003.36,0001.09,0000.75
2023-12-08 06:34:00,SystemResetWarning,0819.8,5.01,000.00,022.2,021.2,000.0,030.8,023.3,11.6,0000.0,0002.27,0001.14,0000.75
2023-12-08 06:35:00,SystemResetWarning,0819.8,5.00,000.00,022.2,021.1,000.0,030.8,023.3,11.6,0000.0,0002.31,0001.17,0000.76
2023-12-08 06:36:00,SystemResetWarning,0819.9,5.00,000.00,022.2,021.1,000.0,030.7,023.3,11.5,0000.0,0002.26,0001.15,0000.76
2023-12-08 06:37:00,SystemResetWarning,0819.9,5.00,000.00,022.2,021.1,000.0,030.7,023.4,11.6,0000.0,0002.18,0001.13,0000.76
2023-12-08 06:38:00,SystemResetWarning,0819.9,5.00,000.00,022.2,021.1,000.0,030.7,023.4,11.6,0000.0,0002.05,0001.12,0000.75
2023-12-08 06:39:00,SystemResetWarning,0820.0,5.00,000.00,022.2,021.1,000.0,030.7,023.4,11.6,0000.0,0002.08,0001.13,0000.76
2023-12-08 06:40:00,SystemResetWarning,0819.9,4.99,000.00,022.2,021.1,000.0,030.7,023.4,11.6,0000.0,0002.17,0001.16,0000.76
2023-12-08 06:41:00,SystemResetWarning,0819.8,4.99,000.00,022.2,021.1,000.0,030.7,023.4,11.6,0000.0,0002.13,0001.15,0000.76
2023-12-08 06:42:00,SystemResetWarning,0819.9,5.00,000.00,022.2,021.1,000.0,030.6,023.4,11.6,0000.0,0002.06,0001.14,0000.76
2023-12-08 06:43:00,SystemResetWarning,0820.1,5.01,000.00,022.2,021.0,000.0,030.6,023.4,11.7,0000.0,0001.88,0001.13,0000.77
2023-12-08 06:44:00,SystemResetWarning,0820.1,5.00,000.00,022.2,021.0,000.0,030.6,023.4,11.7,0000.0,0001.95,0001.15,0000.78
2023-12-08 06:45:00,SystemResetWarning,0819.9,5.01,000.00,022.2,021.0,000.0,030.6,023.4,11.7,0000.0,0001.89,0001.14,0000.78
2023-12-08 06:46:00,SystemResetWarning,0819.8,4.99,000.00,022.2,021.0,000.0,030.6,023.4,11.7,0000.0,0001.81,0001.13,0000.78
2023-12-08 06:47:00,SystemResetWarning,0819.8,5.00,000.00,022.1,021.0,000.0,030.6,023.4,11.6,0000.0,0001.84,0001.14,0000.78
2023-12-08 06:48:00,SystemResetWarning,0819.8,4.99,000.00,022.1,021.0,000.0,030.6,023.3,11.6,0000.0,0001.85,0001.14,0000.79
2023-12-08 06:49:00,SystemResetWarning,0820.1,5.00,000.00,022.1,021.0,000.0,030.6,023.3,11.7,0000.0,0001.84,0001.14,0000.79
2023-12-08 06:50:00,SystemResetWarning,0819.5,5.02,000.00,022.1,020.9,000.0,030.6,023.3,11.7,0000.0,0001.84,0001.14,0000.79
2023-12-08 06:51:00,SystemResetWarning,0819.5,5.01,000.00,022.1,020.9,000.0,030.5,023.3,11.7,0000.0,0001.80,0001.12,0000.80
2023-12-08 06:52:00,SystemResetWarning,0819.5,4.98,000.00,022.1,020.9,000.0,030.5,023.3,11.6,0000.0,0001.81,0001.10,0000.80
2023-12-08 06:53:00,SystemResetWarning,0819.5,4.99,000.00,022.1,020.9,000.0,030.5,023.3,11.5,0000.0,0001.93,0001.11,0000.79
2023-12-08 06:54:00,SystemResetWarning,0819.5,5.01,000.00,022.1,020.9,000.0,030.5,023.3,11.4,0000.0,0001.99,0001.10,0000.79
2023-12-08 06:55:00,SystemResetWarning,0819.4,5.01,000.00,022.1,020.9,000.0,030.5,023.3,11.5,0000.0,0002.06,0001.09,0000.79
2023-12-08 06:56:00,SystemResetWarning,0819.4,5.00,000.00,022.1,020.9,000.0,030.5,023.3,11.6,0000.0,0002.13,0001.10,0000.78
2023-12-08 06:57:00,SystemResetWarning,0819.3,4.99,000.00,022.1,020.9,000.0,030.5,023.3,11.6,0000.0,0002.17,0001.06,0000.78
2023-12-08 06:58:00,SystemResetWarning,0819.4,4.99,000.00,022.1,020.9,000.0,030.5,023.2,11.7,0000.0,0002.28,0001.11,0000.79
2023-12-08 06:59:00,SystemResetWarning,0819.4,5.01,000.00,022.0,020.9,000.0,030.5,023.2,11.7,0000.0,0002.44,0001.13,0000.80
